,,PA_Meas_PMT16A,,PR_Meas_QMR101_102,,RH_Meas_QMH101,,SR_Meas_QMS101,,TA_Meas_QMH101,,GenWind,,GenWind,
time,status,PA,status,PR,status,RH,status,SR,status,TA,status,DirAvg,status,SpdAvg,
2011-01-30, 00:00:04,VALID,917.814,VALID,0,VALID,90.429,VALID,0,VALID,19.9938,VALID,124,VALID,1.1125,
2011-01-30, 00:01:04,VALID,917.827,VALID,0,VALID,90.5586,VALID,0,VALID,19.9938,VALID,105,VALID,0.961719,
2011-01-30, 00:02:04,VALID,917.827,VALID,0,VALID,90.772,VALID,0,VALID,19.9728,VALID,110,VALID,1.54414,
2011-01-30, 00:03:04,VALID,917.825,VALID,0,VALID,90.955,VALID,0,VALID,19.9563,VALID,116,VALID,1.52383,
2011-01-30, 00:04:04,VALID,917.834,VALID,0,VALID,90.9931,VALID,0,VALID,19.9383,VALID,135,VALID,0.811328,
2011-01-30, 00:05:04,VALID,917.833,VALID,0,VALID,91.0998,VALID,0,VALID,20.0209,VALID,134,VALID,1.275,
2011-01-30, 00:06:04,VALID,917.82,VALID,0,VALID,91.2066,VALID,0,VALID,19.9173,VALID,109,VALID,1.36641,
2011-01-30, 00:07:04,VALID,917.854,VALID,0,VALID,91.2447,VALID,0,VALID,19.9173,VALID,121,VALID,1.96055,
2011-01-30, 00:08:04,VALID,917.839,VALID,0,VALID,91.4352,VALID,0,VALID,19.8558,VALID,128,VALID,1.05508,
2011-01-30, 00:09:04,VALID,917.84,VALID,0,VALID,91.5801,VALID,0,VALID,19.8768,VALID,127,VALID,1.01563,
2011-01-30, 00:10:04,VALID,917.823,VALID,0,VALID,91.5953,VALID,0,VALID,19.8798,VALID,124,VALID,1.96328,
2011-01-30, 00:11:04,VALID,917.836,VALID,0,VALID,91.6182,VALID,0,VALID,19.8588,VALID,136,VALID,1.62148,
2011-01-30, 00:12:04,VALID,917.799,VALID,0,VALID,91.6335,VALID,0,VALID,19.8588,VALID,123,VALID,2.38516,
2011-01-30, 00:13:04,VALID,917.803,VALID,0,VALID,91.7631,VALID,0,VALID,19.8798,VALID,127,VALID,1.7418,
2011-01-30, 00:14:04,VALID,917.798,VALID,0,VALID,91.8393,VALID,0,VALID,19.8393,VALID,134,VALID,1.40039,
2011-01-30, 00:15:04,VALID,917.799,VALID,0,VALID,91.9689,VALID,0,VALID,19.8198,VALID,120,VALID,2.12617,
2011-01-30, 00:16:04,VALID,917.776,VALID,0,VALID,92.0985,VALID,0,VALID,19.8198,VALID,120,VALID,1.43281,
2011-01-30, 00:17:04,VALID,917.77,VALID,0,VALID,92.2128,VALID,0.107441,VALID,19.7598,VALID,131,VALID,1.83047,
2011-01-30, 00:18:04,VALID,917.779,VALID,0,VALID,92.3272,VALID,0,VALID,19.8033,VALID,131,VALID,2.44023,
2011-01-30, 00:19:04,VALID,917.768,VALID,0,VALID,92.4873,VALID,0,VALID,19.7613,VALID,131,VALID,0.797266,
2011-01-30, 00:20:04,VALID,917.754,VALID,0,VALID,92.4263,VALID,0,VALID,19.7613,VALID,111,VALID,1.26484,
2011-01-30, 00:21:04,VALID,917.752,VALID,0,VALID,92.4873,VALID,0,VALID,19.6998,VALID,117,VALID,1.70898,
2011-01-30, 00:22:04,VALID,917.728,VALID,0,VALID,92.6093,VALID,0,VALID,19.6998,VALID,106,VALID,1.24688,
2011-01-30, 00:23:04,VALID,917.71,VALID,0,VALID,92.716,VALID,0,VALID,19.7223,VALID,124,VALID,2.51211,
2011-01-30, 00:24:04,VALID,917.744,VALID,0,VALID,92.8227,VALID,0,VALID,19.6818,VALID,128,VALID,2.58477,
2011-01-30, 00:25:04,VALID,917.726,VALID,0,VALID,92.8685,VALID,0,VALID,19.6623,VALID,119,VALID,2.37695,
2011-01-30, 00:26:04,VALID,917.712,VALID,0,VALID,92.9904,VALID,0.107441,VALID,19.6833,VALID,120,VALID,1.67148,
2011-01-30, 00:27:04,VALID,917.724,VALID,0,VALID,92.9676,VALID,0,VALID,19.6833,VALID,124,VALID,2.16758,
2011-01-30, 00:28:04,VALID,917.668,VALID,0,VALID,92.6245,VALID,0,VALID,19.7043,VALID,146,VALID,1.84961,
2011-01-30, 00:29:04,VALID,917.667,VALID,0,VALID,92.2967,VALID,0,VALID,19.7403,VALID,142,VALID,1.31484,
2011-01-30, 00:30:04,VALID,917.639,VALID,0,VALID,92.3043,VALID,0,VALID,19.8018,VALID,138,VALID,1.62578,
2011-01-30, 00:31:04,VALID,917.674,VALID,0,VALID,92.3501,VALID,0,VALID,19.7613,VALID,112,VALID,1.28281,
2011-01-30, 00:32:05,VALID,917.652,VALID,0,VALID,92.4339,VALID,0,VALID,19.7418,VALID,138,VALID,1.22891,
2011-01-30, 00:33:05,VALID,917.655,VALID,0,VALID,92.3882,VALID,0,VALID,19.7013,VALID,123,VALID,1.90117,
2011-01-30, 00:34:05,VALID,917.629,VALID,0,VALID,92.2205,VALID,0,VALID,19.7628,VALID,130,VALID,1.78008,
2011-01-30, 00:35:05,VALID,917.632,VALID,0,VALID,92.1214,VALID,0,VALID,19.7598,VALID,142,VALID,1.05234,
2011-01-30, 00:36:05,VALID,917.631,VALID,0,VALID,91.9841,VALID,0,VALID,19.8003,VALID,113,VALID,2.23789,
2011-01-30, 00:37:05,VALID,917.599,VALID,0,VALID,91.7783,VALID,0,VALID,19.7988,VALID,122,VALID,1.8707,
2011-01-30, 00:38:05,VALID,917.617,VALID,0,VALID,91.3971,VALID,0,VALID,19.8588,VALID,121,VALID,2.36641,
2011-01-30, 00:39:05,VALID,917.611,VALID,0,VALID,91.2599,VALID,0,VALID,19.9188,VALID,112,VALID,1.53828,
2011-01-30, 00:40:05,VALID,917.566,VALID,0,VALID,91.2066,VALID,0,VALID,19.8753,VALID,129,VALID,1.49453,
2011-01-30, 00:41:05,VALID,917.557,VALID,0,VALID,91.1913,VALID,0,VALID,19.8753,VALID,107,VALID,1.4918,
2011-01-30, 00:42:05,VALID,917.518,VALID,0,VALID,91.1151,VALID,0,VALID,19.9383,VALID,150,VALID,1.5207,
2011-01-30, 00:43:05,VALID,917.518,VALID,0,VALID,91.2599,VALID,0,VALID,19.9173,VALID,121,VALID,1.47695,
2011-01-30, 00:44:05,VALID,917.541,VALID,0,VALID,91.4352,VALID,0,VALID,19.9203,VALID,121,VALID,1.40859,
2011-01-30, 00:45:05,VALID,917.537,VALID,0,VALID,91.542,VALID,0,VALID,19.8993,VALID,121,VALID,0.819141,
2011-01-30, 00:46:05,VALID,917.519,VALID,0,VALID,91.5039,VALID,0,VALID,19.8798,VALID,130,VALID,1.60469,
2011-01-30, 00:47:05,VALID,917.538,VALID,0,VALID,91.2675,VALID,0,VALID,19.8378,VALID,121,VALID,1.97461,
2011-01-30, 00:48:05,VALID,917.495,VALID,0,VALID,91.1227,VALID,0,VALID,19.8588,VALID,121,VALID,1.76797,
2011-01-30, 00:49:05,VALID,917.502,VALID,0,VALID,91.1608,VALID,0,VALID,19.9173,VALID,121,VALID,1.40078,
2011-01-30, 00:50:05,VALID,917.552,VALID,0,VALID,91.2675,VALID,0,VALID,19.8978,VALID,122,VALID,1.93984,
2011-01-30, 00:51:05,VALID,917.521,VALID,0,VALID,91.3057,VALID,0,VALID,19.8783,VALID,99,VALID,1.71758,
2011-01-30, 00:52:05,VALID,917.585,VALID,0,VALID,90.9931,VALID,0,VALID,19.9173,VALID,112,VALID,1.22461,
2011-01-30, 00:53:05,VALID,917.529,VALID,0,VALID,91.0541,VALID,0,VALID,19.9368,VALID,129,VALID,0.835547,
2011-01-30, 00:54:05,VALID,917.586,VALID,0,VALID,90.8101,VALID,0,VALID,19.9563,VALID,99,VALID,0.855859,
2011-01-30, 00:55:05,VALID,917.547,VALID,0,VALID,90.5433,VALID,0,VALID,19.9953,VALID,126,VALID,1.32227,
2011-01-30, 00:56:05,VALID,917.547,VALID,0,VALID,90.3146,VALID,0,VALID,20.0148,VALID,126,VALID,1.56562,
2011-01-30, 00:57:05,VALID,917.522,VALID,0,VALID,90.368,VALID,0,VALID,20.0538,VALID,100,VALID,1.45313,
2011-01-30, 00:58:05,VALID,917.527,VALID,0,VALID,90.2689,VALID,0,VALID,20.0343,VALID,103,VALID,0.653125,
2011-01-30, 00:59:05,VALID,917.472,VALID,0,VALID,90.1469,VALID,0,VALID,20.0538,VALID,116,VALID,1.30117,
2011-01-30, 01:00:05,VALID,917.496,VALID,0,VALID,90.1926,VALID,0,VALID,20.1559,VALID,96,VALID,0.896094,
2011-01-30, 01:01:05,VALID,917.487,VALID,0,VALID,90.2231,VALID,0,VALID,20.1559,VALID,96,VALID,1.21445,
2011-01-30, 01:02:05,VALID,917.466,VALID,0,VALID,90.0249,VALID,0,VALID,20.0928,VALID,115,VALID,3.01797,
2011-01-30, 01:03:05,VALID,917.454,VALID,0,VALID,89.7352,VALID,0,VALID,20.1303,VALID,109,VALID,2.38633,
2011-01-30, 01:04:05,VALID,917.46,VALID,0,VALID,89.5904,VALID,0.107441,VALID,20.1288,VALID,122,VALID,2.17422,
2011-01-30, 01:05:05,VALID,917.436,VALID,0,VALID,89.5446,VALID,0,VALID,20.2098,VALID,128,VALID,1.1418,
2011-01-30, 01:06:05,VALID,917.402,VALID,0,VALID,89.4913,VALID,0,VALID,20.1888,VALID,129,VALID,0.978906,
2011-01-30, 01:07:05,VALID,917.404,VALID,0,VALID,89.4227,VALID,0,VALID,20.1888,VALID,124,VALID,1.95977,
2011-01-30, 01:08:05,VALID,917.4,VALID,0,VALID,89.7276,VALID,0.107441,VALID,20.1693,VALID,145,VALID,0.989062,
2011-01-30, 01:09:05,VALID,917.428,VALID,0,VALID,89.7962,VALID,0,VALID,20.1498,VALID,135,VALID,1.40977,
2011-01-30, 01:10:05,VALID,917.399,VALID,0,VALID,90.0097,VALID,0,VALID,20.1108,VALID,135,VALID,0.273828,
2011-01-30, 01:11:05,VALID,917.384,VALID,0,VALID,90.3451,VALID,0.107441,VALID,20.0913,VALID,135,VALID,0.360156,
2011-01-30, 01:12:05,VALID,917.398,VALID,0,VALID,90.429,VALID,0,VALID,20.0913,VALID,154,VALID,0.977344,
2011-01-30, 01:13:05,VALID,917.392,VALID,0,VALID,90.5052,VALID,0,VALID,20.0508,VALID,162,VALID,1.49219,
2011-01-30, 01:14:05,VALID,917.397,VALID,0,VALID,90.5891,VALID,0,VALID,20.0523,VALID,147,VALID,1.57969,
2011-01-30, 01:15:05,VALID,917.352,VALID,0,VALID,90.7491,VALID,0,VALID,20.0538,VALID,173,VALID,1.16367,
2011-01-30, 01:16:05,VALID,917.369,VALID,0,VALID,90.8559,VALID,0,VALID,20.0343,VALID,140,VALID,1.06211,
2011-01-30, 01:17:05,VALID,917.364,VALID,0,VALID,90.9778,VALID,0.107441,VALID,19.9938,VALID,193,VALID,1.73867,
2011-01-30, 01:18:05,VALID,917.35,VALID,0,VALID,91.0846,VALID,0,VALID,19.9938,VALID,150,VALID,0.473047,
2011-01-30, 01:19:05,VALID,917.34,VALID,0,VALID,91.1151,VALID,0,VALID,19.9743,VALID,165,VALID,1.68711,
2011-01-30, 01:20:05,VALID,917.332,VALID,0,VALID,91.2523,VALID,0,VALID,19.9548,VALID,156,VALID,0.889453,
2011-01-30, 01:21:05,VALID,917.346,VALID,0,VALID,91.3285,VALID,0,VALID,19.9353,VALID,165,VALID,1.12383,
2011-01-30, 01:22:05,VALID,917.356,VALID,0,VALID,91.5115,VALID,0,VALID,19.9563,VALID,134,VALID,0.982813,
2011-01-30, 01:23:05,VALID,917.351,VALID,0,VALID,91.5496,VALID,0,VALID,19.9368,VALID,158,VALID,1.04297,
2011-01-30, 01:24:05,VALID,917.335,VALID,0,VALID,91.6335,VALID,0,VALID,19.9368,VALID,158,VALID,1.16797,
2011-01-30, 01:25:05,VALID,917.311,VALID,0,VALID,91.6945,VALID,0,VALID,19.9173,VALID,155,VALID,1.61602,
2011-01-30, 01:26:05,VALID,917.341,VALID,0,VALID,91.7097,VALID,0,VALID,19.8963,VALID,133,VALID,1.38594,
2011-01-30, 01:27:05,VALID,917.372,VALID,0,VALID,91.8622,VALID,0,VALID,19.8768,VALID,125,VALID,0.992578,
2011-01-30, 01:28:05,VALID,917.33,VALID,0,VALID,91.9079,VALID,0,VALID,19.8768,VALID,141,VALID,0.884766,
2011-01-30, 01:29:05,VALID,917.351,VALID,0,VALID,92.007,VALID,0,VALID,19.8783,VALID,140,VALID,1.13945,
2011-01-30, 01:30:05,VALID,917.301,VALID,0,VALID,92.0527,VALID,0,VALID,19.8783,VALID,143,VALID,1.03711,
2011-01-30, 01:31:05,VALID,917.322,VALID,0,VALID,92.1671,VALID,0,VALID,19.8378,VALID,133,VALID,1.31719,
2011-01-30, 01:32:05,VALID,917.286,VALID,0,VALID,92.2357,VALID,0,VALID,19.8588,VALID,189,VALID,0.889063,
2011-01-30, 01:33:05,VALID,917.311,VALID,0,VALID,92.1671,VALID,0,VALID,19.8378,VALID,116,VALID,1.36484,
2011-01-30, 01:34:05,VALID,917.312,VALID,0,VALID,92.251,VALID,0,VALID,19.8588,VALID,108,VALID,1.50312,
2011-01-30, 01:35:05,VALID,917.322,VALID,0,VALID,92.2967,VALID,0,VALID,19.8183,VALID,147,VALID,0.976172,
2011-01-30, 01:36:05,VALID,917.26,VALID,0,VALID,92.2433,VALID,0.107441,VALID,19.8588,VALID,171,VALID,1.22773,
2011-01-30, 01:37:05,VALID,917.252,VALID,0,VALID,92.1976,VALID,0.107441,VALID,19.8378,VALID,143,VALID,0.941797,
2011-01-30, 01:38:05,VALID,917.215,VALID,0,VALID,92.0375,VALID,0,VALID,19.8378,VALID,97,VALID,1.48203,
2011-01-30, 01:39:05,VALID,917.22,VALID,0,VALID,91.9689,VALID,0,VALID,19.8378,VALID,130,VALID,1.30195,
2011-01-30, 01:40:05,VALID,917.199,VALID,0,VALID,91.6487,VALID,0,VALID,19.8183,VALID,123,VALID,1.34609,
2011-01-30, 01:41:05,VALID,917.159,VALID,0,VALID,91.7478,VALID,0,VALID,19.8573,VALID,75,VALID,0.901953,
2011-01-30, 01:42:05,VALID,917.169,VALID,0,VALID,91.5115,VALID,0,VALID,19.8378,VALID,104,VALID,1.41289,
2011-01-30, 01:43:05,VALID,917.142,VALID,0,VALID,91.5267,VALID,0,VALID,19.8378,VALID,119,VALID,0.535937,
2011-01-30, 01:44:05,VALID,917.132,VALID,0,VALID,91.4734,VALID,0.107441,VALID,19.8783,VALID,119,VALID,0.682422,
2011-01-30, 01:45:05,VALID,917.118,VALID,0,VALID,91.2142,VALID,0,VALID,19.8783,VALID,120,VALID,0.935938,
2011-01-30, 01:46:05,VALID,917.066,VALID,0,VALID,91.2294,VALID,0,VALID,19.8978,VALID,112,VALID,0.844922,
2011-01-30, 01:47:05,VALID,917.053,VALID,0,VALID,91.1684,VALID,0.107441,VALID,19.8768,VALID,115,VALID,1.83086,
2011-01-30, 01:48:05,VALID,917.023,VALID,0,VALID,91.2142,VALID,0,VALID,19.8573,VALID,116,VALID,1.72109,
2011-01-30, 01:49:05,VALID,917.023,VALID,0,VALID,91.0846,VALID,0,VALID,19.8768,VALID,141,VALID,1.81016,
2011-01-30, 01:50:05,VALID,916.993,VALID,0,VALID,91.0465,VALID,0,VALID,19.8978,VALID,138,VALID,1.5418,
2011-01-30, 01:51:05,VALID,916.995,VALID,0,VALID,91.0083,VALID,0,VALID,19.8963,VALID,127,VALID,1.68984,
2011-01-30, 01:52:05,VALID,917.008,VALID,0,VALID,91.1608,VALID,0,VALID,19.8963,VALID,146,VALID,1.65742,
2011-01-30, 01:53:05,VALID,916.992,VALID,0,VALID,91.3514,VALID,0,VALID,19.8978,VALID,102,VALID,1.08867,
2011-01-30, 01:54:05,VALID,916.984,VALID,0,VALID,91.4276,VALID,0,VALID,19.8783,VALID,119,VALID,0.757031,
2011-01-30, 01:55:05,VALID,917.003,VALID,0,VALID,91.3438,VALID,0,VALID,19.8783,VALID,119,VALID,1.69844,
2011-01-30, 01:56:05,VALID,916.954,VALID,0,VALID,91.3895,VALID,0,VALID,19.8588,VALID,125,VALID,0.988672,
2011-01-30, 01:57:05,VALID,916.954,VALID,0,VALID,91.1913,VALID,0,VALID,19.8783,VALID,142,VALID,1.36445,
2011-01-30, 01:58:05,VALID,916.964,VALID,0,VALID,91.3514,VALID,0,VALID,19.8783,VALID,135,VALID,1.8582,
2011-01-30, 01:59:05,VALID,916.922,VALID,0,VALID,91.0617,VALID,0,VALID,19.8573,VALID,128,VALID,1.83125,
2011-01-30, 02:00:05,VALID,916.922,VALID,0,VALID,91.237,VALID,0,VALID,19.8768,VALID,129,VALID,1.36406,
2011-01-30, 02:01:05,VALID,916.898,VALID,0,VALID,91.3895,VALID,0,VALID,19.8768,VALID,112,VALID,1.94297,
2011-01-30, 02:02:05,VALID,916.889,VALID,0,VALID,91.4352,VALID,0,VALID,19.8198,VALID,114,VALID,2.025,
2011-01-30, 02:03:05,VALID,916.847,VALID,0,VALID,91.4124,VALID,0.107441,VALID,19.8393,VALID,111,VALID,1.83125,
2011-01-30, 02:04:05,VALID,916.859,VALID,0,VALID,91.5801,VALID,0,VALID,19.8198,VALID,125,VALID,1.58906,
2011-01-30, 02:05:05,VALID,916.845,VALID,0,VALID,91.7402,VALID,0,VALID,19.7793,VALID,145,VALID,1.58477,
2011-01-30, 02:06:05,VALID,916.812,VALID,0,VALID,91.7935,VALID,0,VALID,19.7808,VALID,129,VALID,1.98477,
2011-01-30, 02:07:05,VALID,916.788,VALID,0,VALID,91.7554,VALID,0,VALID,19.7598,VALID,127,VALID,1.66367,
2011-01-30, 02:08:05,VALID,916.781,VALID,0,VALID,91.7707,VALID,0,VALID,19.8003,VALID,102,VALID,1.99727,
2011-01-30, 02:09:05,VALID,916.79,VALID,0,VALID,91.8012,VALID,0,VALID,19.7808,VALID,153,VALID,1.26055,
2011-01-30, 02:10:05,VALID,916.789,VALID,0,VALID,91.824,VALID,0,VALID,19.7598,VALID,132,VALID,1.8375,
2011-01-30, 02:11:05,VALID,916.803,VALID,0,VALID,91.9079,VALID,0,VALID,19.7613,VALID,122,VALID,1.33945,
2011-01-30, 02:12:05,VALID,916.789,VALID,0,VALID,91.9536,VALID,0,VALID,19.7418,VALID,124,VALID,1.56523,
2011-01-30, 02:13:05,VALID,916.77,VALID,0,VALID,92.0985,VALID,0,VALID,19.7208,VALID,145,VALID,0.850781,
2011-01-30, 02:14:05,VALID,916.783,VALID,0,VALID,92.1214,VALID,0,VALID,19.7013,VALID,101,VALID,1.52461,
2011-01-30, 02:15:05,VALID,916.769,VALID,0,VALID,92.007,VALID,0,VALID,19.7223,VALID,137,VALID,2.26992,
2011-01-30, 02:16:05,VALID,916.767,VALID,0,VALID,91.9155,VALID,0,VALID,19.7418,VALID,143,VALID,1.55117,
2011-01-30, 02:17:05,VALID,916.727,VALID,0,VALID,91.7326,VALID,0,VALID,19.7613,VALID,152,VALID,1.74531,
2011-01-30, 02:18:05,VALID,916.707,VALID,0,VALID,91.664,VALID,0,VALID,19.7598,VALID,145,VALID,1.01719,
2011-01-30, 02:19:05,VALID,916.69,VALID,0,VALID,91.7707,VALID,0,VALID,19.7598,VALID,132,VALID,1.24023,
2011-01-30, 02:20:05,VALID,916.71,VALID,0,VALID,91.9918,VALID,0,VALID,19.7418,VALID,132,VALID,1.49922,
2011-01-30, 02:21:05,VALID,916.7,VALID,0,VALID,92.2128,VALID,0,VALID,19.7208,VALID,135,VALID,0.905078,
2011-01-30, 02:22:05,VALID,916.673,VALID,0,VALID,92.4492,VALID,0,VALID,19.7028,VALID,94,VALID,1.47969,
2011-01-30, 02:23:05,VALID,916.648,VALID,0,VALID,92.5178,VALID,0,VALID,19.6833,VALID,110,VALID,1.43438,
2011-01-30, 02:24:05,VALID,916.654,VALID,0,VALID,92.6321,VALID,0.107441,VALID,19.6833,VALID,127,VALID,1.20078,
2011-01-30, 02:25:05,VALID,916.641,VALID,0,VALID,92.6397,VALID,0,VALID,19.6638,VALID,107,VALID,1.39258,
2011-01-30, 02:26:05,VALID,916.653,VALID,0,VALID,92.716,VALID,0,VALID,19.6443,VALID,118,VALID,1.20273,
2011-01-30, 02:27:05,VALID,916.625,VALID,0,VALID,92.7389,VALID,0,VALID,19.6443,VALID,126,VALID,1.36719,
2011-01-30, 02:28:05,VALID,916.629,VALID,0,VALID,92.7389,VALID,0,VALID,19.6443,VALID,118,VALID,1.18164,
2011-01-30, 02:29:05,VALID,916.59,VALID,0,VALID,92.6093,VALID,0,VALID,19.6443,VALID,130,VALID,1.39531,
2011-01-30, 02:30:05,VALID,916.605,VALID,0,VALID,92.5711,VALID,0,VALID,19.6443,VALID,124,VALID,1.33047,
2011-01-30, 02:31:05,VALID,916.584,VALID,0,VALID,92.5254,VALID,0,VALID,19.6443,VALID,122,VALID,0.976953,
2011-01-30, 02:32:05,VALID,916.581,VALID,0,VALID,92.5102,VALID,0,VALID,19.6233,VALID,131,VALID,1.66211,
2011-01-30, 02:33:05,VALID,916.577,VALID,0,VALID,92.6169,VALID,0,VALID,19.6638,VALID,131,VALID,1.25469,
2011-01-30, 02:34:05,VALID,916.567,VALID,0,VALID,92.6397,VALID,0,VALID,19.6233,VALID,131,VALID,1.11367,
2011-01-30, 02:35:05,VALID,916.556,VALID,0,VALID,92.6474,VALID,0,VALID,19.6428,VALID,123,VALID,1.11328,
2011-01-30, 02:36:05,VALID,916.559,VALID,0,VALID,92.5864,VALID,0,VALID,19.6428,VALID,121,VALID,1.08086,
2011-01-30, 02:37:05,VALID,916.525,VALID,0,VALID,92.5178,VALID,0,VALID,19.6428,VALID,138,VALID,1.77227,
2011-01-30, 02:38:05,VALID,916.537,VALID,0,VALID,92.3653,VALID,0.107441,VALID,19.6623,VALID,144,VALID,1.60547,
2011-01-30, 02:39:05,VALID,916.538,VALID,0,VALID,92.2662,VALID,0,VALID,19.6818,VALID,135,VALID,1.44805,
2011-01-30, 02:40:05,VALID,916.513,VALID,0,VALID,92.1747,VALID,0,VALID,19.7028,VALID,139,VALID,1.69805,
2011-01-30, 02:41:05,VALID,916.514,VALID,0,VALID,92.0527,VALID,0.107441,VALID,19.6818,VALID,129,VALID,2.01367,
2011-01-30, 02:42:05,VALID,916.482,VALID,0,VALID,92.1823,VALID,0,VALID,19.7028,VALID,129,VALID,1.49297,
2011-01-30, 02:43:05,VALID,916.502,VALID,0,VALID,92.3043,VALID,0,VALID,19.6818,VALID,150,VALID,1.12461,
2011-01-30, 02:44:05,VALID,916.495,VALID,0,VALID,92.3882,VALID,0,VALID,19.7028,VALID,127,VALID,1.01055,
2011-01-30, 02:45:05,VALID,916.499,VALID,0,VALID,92.3272,VALID,0,VALID,19.6623,VALID,144,VALID,1.28047,
2011-01-30, 02:46:05,VALID,916.477,VALID,0,VALID,92.3729,VALID,0,VALID,19.6833,VALID,144,VALID,0.882031,
2011-01-30, 02:47:05,VALID,916.493,VALID,0,VALID,92.3958,VALID,0,VALID,19.6833,VALID,144,VALID,0.552344,
2011-01-30, 02:48:05,VALID,916.457,VALID,0,VALID,92.3272,VALID,0,VALID,19.6623,VALID,146,VALID,1.50742,
2011-01-30, 02:49:05,VALID,916.45,VALID,0,VALID,92.4339,VALID,0,VALID,19.6833,VALID,147,VALID,0.703125,
2011-01-30, 02:50:05,VALID,916.406,VALID,0,VALID,92.4492,VALID,0,VALID,19.6623,VALID,147,VALID,0.433594,
2011-01-30, 02:51:05,VALID,916.375,VALID,0,VALID,92.3501,VALID,0,VALID,19.6623,VALID,147,VALID,0.775781,
2011-01-30, 02:52:05,VALID,916.367,VALID,0,VALID,92.3043,VALID,0.107441,VALID,19.6623,VALID,147,VALID,1.04648,
2011-01-30, 02:53:05,VALID,916.368,VALID,0,VALID,92.2357,VALID,0,VALID,19.6833,VALID,147,VALID,1.17578,
2011-01-30, 02:54:05,VALID,916.352,VALID,0,VALID,92.2357,VALID,0,VALID,19.6818,VALID,146,VALID,0.764453,
2011-01-30, 02:55:05,VALID,916.298,VALID,0,VALID,92.3196,VALID,0,VALID,19.6833,VALID,146,VALID,0.274219,
2011-01-30, 02:56:05,VALID,916.298,VALID,0,VALID,92.3043,VALID,0,VALID,19.6833,VALID,146,VALID,0.483984,
2011-01-30, 02:57:05,VALID,916.279,VALID,0,VALID,92.3424,VALID,0,VALID,19.6638,VALID,146,VALID,0.769531,
2011-01-30, 02:58:05,VALID,916.284,VALID,0,VALID,92.3272,VALID,0,VALID,19.6428,VALID,146,VALID,0.848047,
2011-01-30, 02:59:05,VALID,916.281,VALID,0,VALID,92.3272,VALID,0,VALID,19.6638,VALID,146,VALID,0.467969,
2011-01-30, 03:00:05,VALID,916.272,VALID,0,VALID,92.3577,VALID,0,VALID,19.6428,VALID,146,VALID,0.535937,
2011-01-30, 03:01:05,VALID,916.257,VALID,0,VALID,92.3653,VALID,0,VALID,19.6428,VALID,146,VALID,0.465234,
2011-01-30, 03:02:05,VALID,916.237,VALID,0,VALID,92.2433,VALID,0,VALID,19.6638,VALID,146,VALID,0.901563,
2011-01-30, 03:03:05,VALID,916.253,VALID,0,VALID,92.3043,VALID,0,VALID,19.6638,VALID,146,VALID,0.586719,
2011-01-30, 03:04:05,VALID,916.221,VALID,0,VALID,92.1976,VALID,0,VALID,19.6638,VALID,146,VALID,1.30508,
2011-01-30, 03:05:05,VALID,916.237,VALID,0,VALID,92.2052,VALID,0,VALID,19.6833,VALID,181,VALID,1.10859,
2011-01-30, 03:06:05,VALID,916.267,VALID,0,VALID,92.0909,VALID,0,VALID,19.6833,VALID,181,VALID,0.840234,
2011-01-30, 03:07:05,VALID,916.261,VALID,0,VALID,92.1137,VALID,0,VALID,19.7028,VALID,181,VALID,0.465625,
2011-01-30, 03:08:05,VALID,916.271,VALID,0,VALID,92.2052,VALID,0,VALID,19.7028,VALID,181,VALID,0.355859,
2011-01-30, 03:09:05,VALID,916.261,VALID,0,VALID,92.2967,VALID,0,VALID,19.7223,VALID,181,VALID,0.199609,
2011-01-30, 03:10:05,VALID,916.25,VALID,0,VALID,92.3348,VALID,0,VALID,19.7013,VALID,181,VALID,0.849609,
2011-01-30, 03:11:05,VALID,916.268,VALID,0,VALID,92.4187,VALID,0,VALID,19.7028,VALID,181,VALID,0.814062,
2011-01-30, 03:12:05,VALID,916.22,VALID,0,VALID,92.3729,VALID,0,VALID,19.6428,VALID,181,VALID,0.628125,
2011-01-30, 03:13:05,VALID,916.237,VALID,0,VALID,92.4263,VALID,0,VALID,19.6638,VALID,181,VALID,0.535156,
2011-01-30, 03:14:05,VALID,916.222,VALID,0,VALID,92.3882,VALID,0,VALID,19.6443,VALID,181,VALID,0.439453,
2011-01-30, 03:15:05,VALID,916.238,VALID,0,VALID,92.3653,VALID,0,VALID,19.6233,VALID,181,VALID,0.910937,
2011-01-30, 03:16:05,VALID,916.215,VALID,0,VALID,92.3958,VALID,0,VALID,19.6638,VALID,181,VALID,0.497656,
2011-01-30, 03:17:05,VALID,916.202,VALID,0,VALID,92.472,VALID,0,VALID,19.6638,VALID,181,VALID,0.698828,
2011-01-30, 03:18:05,VALID,916.193,VALID,0,VALID,92.5711,VALID,0,VALID,19.6443,VALID,181,VALID,0.973437,
2011-01-30, 03:19:04,VALID,916.174,VALID,0,VALID,92.5483,VALID,0,VALID,19.7088,VALID,90,VALID,0.975781,
2011-01-30, 03:20:04,VALID,916.159,VALID,0,VALID,92.4797,VALID,0,VALID,19.6038,VALID,90,VALID,0.851953,
2011-01-30, 03:21:04,VALID,916.167,VALID,0,VALID,92.5102,VALID,0,VALID,19.6443,VALID,90,VALID,0.896875,
2011-01-30, 03:22:04,VALID,916.144,VALID,0,VALID,92.411,VALID,0,VALID,19.6248,VALID,116,VALID,1.30078,
2011-01-30, 03:23:04,VALID,916.15,VALID,0,VALID,92.3424,VALID,0,VALID,19.6443,VALID,113,VALID,1.15586,
2011-01-30, 03:24:04,VALID,916.133,VALID,0,VALID,92.4873,VALID,0,VALID,19.6638,VALID,113,VALID,0.778516,
2011-01-30, 03:25:04,VALID,916.107,VALID,0,VALID,92.4797,VALID,0,VALID,19.6233,VALID,113,VALID,0.826953,
2011-01-30, 03:26:04,VALID,916.086,VALID,0,VALID,92.5254,VALID,0,VALID,19.6248,VALID,113,VALID,1.08398,
2011-01-30, 03:27:04,VALID,916.07,VALID,0,VALID,92.5711,VALID,0,VALID,19.6248,VALID,113,VALID,0.714063,
2011-01-30, 03:28:04,VALID,916.077,VALID,0,VALID,92.6931,VALID,0,VALID,19.6248,VALID,113,VALID,0.987891,
2011-01-30, 03:29:04,VALID,916.068,VALID,0,VALID,92.8227,VALID,0,VALID,19.6053,VALID,113,VALID,0.904297,
2011-01-30, 03:30:04,VALID,916.085,VALID,0,VALID,92.9142,VALID,0,VALID,19.5858,VALID,113,VALID,1,
2011-01-30, 03:31:04,VALID,916.067,VALID,0,VALID,92.9599,VALID,0,VALID,19.5858,VALID,113,VALID,0.864062,
2011-01-30, 03:32:04,VALID,916.054,VALID,0,VALID,92.9599,VALID,0,VALID,19.5858,VALID,112,VALID,0.995313,
2011-01-30, 03:33:04,VALID,916.057,VALID,0,VALID,92.9294,VALID,0,VALID,19.5648,VALID,112,VALID,1.3582,
2011-01-30, 03:34:04,VALID,916.026,VALID,0,VALID,92.7846,VALID,0,VALID,19.5858,VALID,112,VALID,1.6043,
2011-01-30, 03:35:04,VALID,916.021,VALID,0,VALID,92.8456,VALID,0,VALID,19.6068,VALID,112,VALID,1.25469,
2011-01-30, 03:36:04,VALID,916.028,VALID,0,VALID,92.9371,VALID,0,VALID,19.5858,VALID,111,VALID,1.01602,
2011-01-30, 03:37:04,VALID,916.01,VALID,0,VALID,93.0209,VALID,0,VALID,19.6068,VALID,94,VALID,1.31172,
2011-01-30, 03:38:04,VALID,915.99,VALID,0,VALID,93.0133,VALID,0,VALID,19.5468,VALID,94,VALID,1.05234,
2011-01-30, 03:39:04,VALID,915.966,VALID,0,VALID,92.9523,VALID,0,VALID,19.5663,VALID,94,VALID,1.14805,
2011-01-30, 03:40:04,VALID,915.975,VALID,0,VALID,92.9066,VALID,0,VALID,19.5663,VALID,94,VALID,0.647266,
2011-01-30, 03:41:04,VALID,915.947,VALID,0,VALID,92.8837,VALID,0,VALID,19.6068,VALID,94,VALID,0.85625,
2011-01-30, 03:42:04,VALID,915.913,VALID,0,VALID,92.8761,VALID,0,VALID,19.5858,VALID,120,VALID,1.08438,
2011-01-30, 03:43:04,VALID,915.947,VALID,0,VALID,92.8837,VALID,0,VALID,19.6053,VALID,120,VALID,1.30195,
2011-01-30, 03:44:04,VALID,915.921,VALID,0,VALID,92.9218,VALID,0,VALID,19.5858,VALID,120,VALID,0.596484,